Location: Roland
(31.1349°N, 85.4372°W)
Time: 08:45:14
(UTC+00:00)

Vanguard 2 Rocket - Pass Details

Date: 24 April 2021
Orbit: 554 x 3326 km, 32.9° (Epoch: 16 May)

Event Time Altitude Azimuth Distance (km) Brightness Sun altitude
Rises 00:40:30 0° 288° (WNW) 7,308 14.5 -5.9°
Reaches altitude 10° 00:45:57 10° 283° (WNW) 6,187 12.9 -7.0°
Maximum altitude 01:03:01 44° 220° (SW) 3,269 9.8 -10.4°
Drops below altitude 10° 01:14:23 10° 153° (SSE) 4,183 9.8 -12.6°
Enters shadow 01:15:40 - 150° (SSE) 4,461 9.9 -12.9°
